MAKERSAT 0

Last updated on Fri Dec 12 2025 00:03:52 GMT+0000 (Coordinated Universal Time)

1 43016U 17073D 25345.14890117 .00030721 00000+0 10328-2 0 9990 2 43016 97.4889 222.0590 0126081 216.9653 142.2848 15.23365645437756
UTC large
Height (km)
Speed (km/s)
/
Latitude / Longitude
Inclination (degrees)
Orbital Period (minutes)
Azimuth
Elevation
Range (km)
Doppler Factor

Next 0 passes for location: London (51.5072 / 0.1276)

Sorry there are no passes over London.